Home   Weather   Knoxville   Past weeks

Flag for USA Past Weather in Knoxville, Tennessee, USA — Yesterday and Last 2 Weeks

Now
81 °F

Passing clouds.


Feels Like: 79 °F
Forecast: 53 / 82 °F
Wind: 10 mph from Southwest

Location: McGhee Tyson Airport

Current Time: Sep 28, 2016 at 4:38:22 PM

Latest Report: Sep 28, 2016 at 3:53 PM


Visibility: 10 mi

Pressure: 29.86 "Hg

Humidity: 25%

Dew Point: 42 °F

Location of KnoxvilleLocation

Past Weather in Knoxville — Graph

°F

Knoxville Temperature Yesterday

Maximum temperature yesterday: 79 °F (at 4:53 PM)
Minimum temperature yesterday: 62 °F (at 7:53 AM)
Average temperature yesterday: 70 °F

High & Low Weather Summary for the Past Weeks

 TemperatureHumidityPressure
High93 °F (Sep 15, 3:53 PM)96% (Sep 19, 6:53 AM)30.16 "Hg (Sep 19, 6:53 AM)
Low56 °F (Sep 28, 6:53 AM)21% (Sep 28, 1:53 PM)29.86 "Hg (Sep 27, 5:53 PM)
Average76 °F63%30.03 "Hg
* Reported Sep 13 2:53 PM — Sep 28 2:53 PM, Knoxville, Weather by CustomWeather, © 2016

Note: Actual official high and low records may vary slightly from our data, if they occured in-between our weather recording intervals... More about our weather records

Advertising

Knoxville Weather History for the Previous 24 Hours

Scroll right to see more
 ConditionsComfort  
Time TempWeatherWind HumidityBarometerVisibility
2:53 PM
Wed, Sep 28
80 °FPassing clouds.13 mph27%29.87 "Hg9 mi
1:53 PM79 °FPassing clouds.12 mph21%29.90 "Hg10 mi
12:53 PM75 °FSunny.3 mph33%29.91 "Hg10 mi
11:53 AM72 °FPassing clouds.3 mph43%29.93 "Hg10 mi
10:53 AM69 °FPassing clouds.3 mph55%29.94 "Hg10 mi
9:53 AM64 °FPassing clouds.5 mph68%29.93 "Hg10 mi
8:53 AM59 °FPassing clouds.No wind84%29.93 "Hg10 mi
7:53 AM56 °FPassing clouds.No wind87%29.92 "Hg10 mi
6:53 AM56 °FPassing clouds.No wind87%29.92 "Hg10 mi
5:53 AM57 °FPassing clouds.No wind87%29.91 "Hg10 mi
4:53 AM60 °FClear.No wind78%29.91 "Hg10 mi
3:53 AM61 °FClear.3 mph75%29.90 "Hg10 mi
2:53 AM61 °FPassing clouds.3 mph81%29.90 "Hg10 mi
1:53 AM64 °FPassing clouds.No wind58%29.90 "Hg10 mi
12:53 AM66 °FPassing clouds.No wind68%29.91 "Hg10 mi
11:53 PM
Tue, Sep 27
69 °FPassing clouds.No wind57%29.91 "Hg10 mi
10:53 PM69 °FPassing clouds.3 mph70%29.90 "Hg10 mi
9:53 PM69 °FPassing clouds.No wind76%29.88 "Hg10 mi
8:53 PM73 °FPassing clouds.3 mph62%29.87 "Hg10 mi
7:53 PM74 °FPassing clouds.3 mph62%29.87 "Hg10 mi
6:53 PM77 °FPassing clouds.6 mph54%29.86 "Hg10 mi
5:53 PM79 °FPassing clouds.5 mph48%29.86 "Hg10 mi
4:53 PM79 °FScattered clouds.7 mph54%29.86 "Hg10 mi
Weather by CustomWeather, © 2016

See weather overviewHow to use our weather pages